Home > Weather > Vientiane > Past weeks

Flag for Laos Weather for the Past 2 Weeks in Vientiane, Laos

Now
75 °F

Fog.


Feels Like: 77 °F
Forecast: 64 / 93 °F
Wind: 2 mph from West

Location: Vientiane Airport

Current Time: Feb 13, 2016 at 10:17:30 PM

Latest Report: Feb 13, 2016 at 9:30 PM


Visibility: 2 mi

Pressure: 29.86 "Hg

Humidity: 69%

Dew point: 64 °F

Location of VientianeLocation

Historic Weather in Vientiane — Graph

°F

Vientiane Temperature Yesterday

Maximum temperature yesterday: 91 °F (at 2:00 PM)
Minimum temperature yesterday: 59 °F (at 6:00 AM)
Average temperature yesterday: 78 °F

High & Low Weather Summary for the Past Weeks

 TemperatureHumidityPressure
High93 °F (Feb 13, 4:00 PM)94% (Jan 30, 7:30 AM)30.27 "Hg (Jan 30, 7:30 AM)
Low50 °F (Feb 8, 6:00 AM)36% (Feb 7, 3:00 PM)29.77 "Hg (Feb 12, 5:00 PM)
Average74 °F64%29.96 "Hg
* Reported Jan 29 9:00 PM — Feb 13 9:00 PM, Vientiane, Weather by CustomWeather, © 2016

Note: Actual official high and low records may vary slightly from our data, if they occured in-between our weather recording intervals... More about our weather records

Advertising

Vientiane Weather History for the Previous 24 Hours

 ConditionsComfort  
Time TempWeatherWind HumidityBarometerVisibility
9:00 PM
Sat, Feb 13
77 °FFog.2 mph65%29.83 "Hg2 mi
8:30 PM77 °FFog.2 mph65%29.86 "Hg2 mi
8:00 PM81 °FFog.2 mph58%29.83 "Hg2 mi
7:30 PM81 °FFog.2 mph62%29.83 "Hg3 mi
7:00 PM84 °FFog.2 mph58%29.80 "Hg3 mi
6:30 PM84 °FFog.2 mph55%29.83 "Hg3 mi
6:00 PM88 °FClear.2 mph52%29.80 "Hg4 mi
5:30 PM90 °FClear.2 mph43%29.80 "Hg5 mi
5:00 PM91 °FClear.2 mph41%29.80 "Hg5 mi
4:30 PM93 °FClear.2 mph41%29.80 "Hg6 mi
4:00 PM93 °FClear.2 mph41%29.80 "Hg6 mi
3:30 PM91 °FClear.5 mph46%29.80 "Hg6 mi
3:00 PM91 °FClear.5 mph46%29.80 "Hg6 mi
2:30 PM91 °FClear.2 mph41%29.80 "Hg6 mi
2:00 PM90 °FClear.2 mph46%29.83 "Hg6 mi
1:30 PM90 °FClear.2 mph43%29.83 "Hg6 mi
1:00 PM86 °FClear.5 mph49%29.86 "Hg6 mi
12:30 PM86 °FClear.2 mph46%29.89 "Hg6 mi
12:00 PM84 °FClear.2 mph48%29.89 "Hg6 mi
11:30 AM82 °FClear.2 mph51%29.92 "Hg5 mi
11:00 AM81 °FClear.2 mph58%29.95 "Hg5 mi
10:30 AM79 °FClear.2 mph58%29.95 "Hg5 mi
10:00 AM77 °FClear.2 mph61%29.95 "Hg4 mi
9:30 AM73 °FPassing clouds.2 mph65%29.95 "Hg4 mi
9:00 AM72 °FPassing clouds.2 mph69%29.95 "Hg4 mi
8:30 AM70 °FClear.2 mph73%29.92 "Hg4 mi
8:00 AM66 °FFog.2 mph83%29.92 "Hg3 mi
7:00 AM64 °FFog.2 mph88%29.89 "Hg2 mi
6:30 AM64 °FFog.2 mph88%29.86 "Hg2 mi
6:00 AM64 °FFog.5 mph88%29.86 "Hg2 mi
10:30 PM
Fri, Feb 12
72 °FFog.2 mph78%29.86 "Hg2 mi
10:00 PM72 °FFog.2 mph78%29.86 "Hg2 mi
Weather by CustomWeather, © 2016

See weather overviewHow to use our weather pages